DW4642 Weather Reports


Display with metric or nautical units.
time (UTC)temp
F
wind
direction
speed
MPH
gust
MPH
rain 1hr
in
rain 24hr
in
rain mn
in
humidity
%
barometer
mb
20190119145016 27 30 0.0 1.0 0.00 0.00 0.00 67 1025.5
20190119143545 26 9 0.0 2.0 0.00 0.00 0.00 68 1025.2
20190119142123 26 24 0.0 5.0 0.00 0.00 0.00 68 1025.1
20190119140654 26 338 0.0 7.0 0.00 0.00 0.00 68 1024.8
20190119135220 26 323 0.0 2.0 0.00 0.00 0.00 70 1024.8
20190119133714 25 22 0.0 4.0 0.00 0.00 0.00 73 1024.3
20190119132235 25 348 0.0 1.0 0.00 0.00 0.00 74 1024.4
20190119130756 25 79 0.0 1.0 0.00 0.00 0.00 76 1024.4
20190119125236 25 30 0.0 0.0 0.00 0.00 0.00 77 1024.2
20190119123758 24 28 0.0 1.0 0.00 0.00 0.00 80 1023.4
20190119122211 23 304 0.0 0.0 0.00 0.00 0.00 86 1023.6
20190119120750 23 304 0.0 0.0 0.00 0.00 0.00 86 1023.7
20190119115330 22 304 0.0 0.0 0.00 0.00 0.00 86 1023.7
20190119113845 22 304 0.0 0.0 0.00 0.00 0.00 86 1023.3
20190119112320 22 304 0.0 0.0 0.00 0.00 0.00 87 1023.0
20190119110832 21 304 0.0 0.0 0.00 0.00 0.00 86 1022.9
20190119105338 22 298 0.0 0.0 0.00 0.00 0.00 86 1022.7
20190119103814 21 44 0.0 0.0 0.00 0.00 0.00 86 1022.0
20190119102246 21 26 0.0 0.0 0.00 0.00 0.00 85 1021.6
20190119100730 21 28 0.0 0.0 0.00 0.00 0.00 84 1021.6
20190119095213 22 27 0.0 0.0 0.00 0.00 0.00 84 1021.5
20190119093658 23 27 0.0 0.0 0.00 0.00 0.00 82 1021.5
20190119092148 23 27 0.0 0.0 0.00 0.00 0.00 81 1021.3
20190119090708 24 27 0.0 0.0 0.00 0.00 0.00 81 1021.6
20190119085140 24 27 0.0 0.0 0.00 0.00 0.00 80 1021.5
20190119083704 25 0 0.0 0.0 0.00 0.00 0.00 78 1021.2
20190119082158 26 0 0.0 0.0 0.00 0.00 0.00 76 1021.1
20190119080645 27 308 0.0 0.0 0.00 0.00 0.00 74 1020.8
20190119075115 28 333 0.0 0.0 0.00 0.00 0.00 73 1020.8
20190119073546 29 316 0.0 0.0 0.00 0.00 0.00 71 1020.5
20190119072001 29 313 0.0 0.0 0.00 0.00 0.00 71 1020.2
20190119070530 28 286 0.0 1.0 0.00 0.00 0.00 73 1020.1
20190119065058 28 300 0.0 0.0 0.00 0.00 0.00 72 1020.0
20190119063604 29 293 0.0 0.0 0.00 0.00 0.00 70 1019.7
20190119062050 30 329 0.0 0.0 0.00 0.00 0.00 69 1019.4
20190119060619 30 348 0.0 1.0 0.00 0.00 0.00 69 1019.4
20190119055052 30 281 0.0 4.0 0.00 0.00 0.00 69 1019.0
20190119053624 30 296 0.0 0.0 0.00 0.00 0.00 69 1019.0
20190119052120 30 298 0.0 1.0 0.00 0.00 0.00 68 1019.0
20190119050655 30 35 0.0 0.0 0.00 0.00 0.00 69 1019.1
20190119045206 31 321 0.0 0.0 0.00 0.00 0.00 66 1018.9
20190119043722 32 315 0.0 0.0 0.00 0.00 0.00 64 1019.0
20190119042237 32 281 0.0 10.0 0.00 0.00 0.00 62 1019.0
20190119040656 32 350 0.0 6.0 0.00 0.00 0.00 63 1019.0
20190119035213 32 59 0.0 0.0 0.00 0.00 0.00 61 1018.8
20190119033702 33 303 0.0 8.0 0.00 0.00 0.00 60 1018.7
20190119032220 33 17 0.0 1.0 0.00 0.00 0.00 61 1018.5
20190119030731 33 324 1.0 7.0 0.00 0.00 0.00 60 1018.5
20190119025158 34 274 2.0 12.0 0.00 0.00 0.00 58 1018.4
20190119023652 34 329 1.0 5.0 0.00 0.00 0.00 59 1018.1
20190119022122 35 303 2.0 10.0 0.00 0.00 0.00 62 1018.0
20190119020649 35 342 1.0 8.0 0.00 0.00 0.00 65 1017.9
20190119015224 35 292 0.0 8.0 0.00 0.00 0.00 67 1017.6
20190119013722 35 311 0.0 8.0 0.00 0.00 0.00 69 1017.5
20190119012145 35 28 0.0 4.0 0.00 0.00 0.00 72 1017.5
20190119010712 35 41 0.0 8.0 0.00 0.00 0.00 74 1017.5
20190119005242 34 294 2.0 8.0 0.00 0.00 0.00 78 1017.5
20190118225404 30 304 0.0 0.0 0.00 0.00 0.00 77 1016.1
20190118224125 30 304 0.0 0.0 0.00 0.00 0.00 76 1016.0
20190118222358 31 304 0.0 0.0 0.00 0.00 0.00 74 1015.8
20190118220843 32 304 0.0 0.0 0.00 0.00 0.00 73 1016.0
20190118215417 32 304 0.0 0.0 0.00 0.00 0.00 72 1016.1
20190118213855 32 304 0.0 0.0 0.00 0.00 0.00 72 1016.3
20190118212413 32 220 0.0 0.0 0.00 0.00 0.00 72 1016.0
20190118210904 32 170 0.0 0.0 0.00 0.00 0.00 72 1015.6
20190118205435 32 170 0.0 0.0 0.00 0.00 0.00 72 1015.7
20190118203922 32 170 0.0 0.0 0.00 0.00 0.00 72 1015.8
20190118202438 32 171 0.0 0.0 0.00 0.00 0.00 71 1015.3
20190118200933 32 153 0.0 0.0 0.00 0.00 0.00 71 1015.2
20190118195435 32 209 0.0 2.0 0.00 0.00 0.00 71 1015.3
20190118193912 32 190 0.0 4.0 0.00 0.00 0.00 71 1015.3
20190118192427 32 166 0.0 4.0 0.00 0.00 0.00 70 1015.3
20190118191001 32 153 0.0 2.0 0.00 0.00 0.00 71 1015.3
20190118185424 31 210 0.0 2.0 0.00 0.00 0.00 71 1015.3
20190118183838 31 206 0.0 0.0 0.00 0.00 0.00 72 1015.6
20190118182330 30 160 0.0 1.0 0.00 0.00 0.00 72 1015.8
20190118180822 30 208 0.0 0.0 0.00 0.00 0.00 71 1015.9
20190118175311 30 169 0.0 3.0 0.00 0.00 0.00 70 1016.1
20190118173723 30 179 0.0 3.0 0.00 0.00 0.00 70 1016.5
20190118172231 30 145 0.0 2.0 0.00 0.00 0.00 70 1016.8
20190118170729 30 152 0.0 2.0 0.00 0.00 0.00 68 1017.0
20190118165217 29 206 0.0 0.0 0.00 0.00 0.00 67 1017.4
20190118163718 28 174 0.0 0.0 0.00 0.00 0.00 68 1017.8
20190118162221 28 165 0.0 2.0 0.00 0.00 0.00 68 1018.2
20190118160731 28 202 0.0 1.0 0.00 0.00 0.00 67 1018.6
20190118155150 28 171 0.0 1.0 0.00 0.00 0.00 65 1018.7
20190118153652 28 198 0.0 0.0 0.00 0.00 0.00 63 1019.1
20190118152107 27 49 0.0 0.0 0.00 0.00 0.00 63 1019.2
20190118150603 27 151 0.0 0.0 0.00 0.00 0.00 63 1019.2